STARLINK-33903 (63828 NORAD) Tracking and Keplerian Element Data

This shows tracking and keplerian element data for the satellite.

Feedback or suggestion? Click here.




ElementValue
Catalog63828
NameSTARLINK-33903
Epoch Orbit3650
Epoch Day354.1730448
Epoch Year2025
RAAN261.6031
Inclination42.9982
Eccentricity0.0002066
Argument of Perigee242.0143
Mean Anonmoly118.0499
Mean Motion15.27587411
Decay Rate0.00015811
L11 63828U 25092AA 25354.17304480 .00015811 00000+0 58269-3 0 9999
L22 63828 42.9982 261.6031 0002066 242.0143 118.0499 15.27587411 36509



Live tracking and technical data element details for STARLINK-33903 (NORAD 63828). STARLINK-33903 can be tracked NOW for your location showing map with azimuth and elevation plus other details from your city location.







IsCatalogInMostPopularTable: catalog: 63828, numindb: 7
Update: records affected: 1



GetName: 63828 STARLINK-33903

Hit Count: updated at: Wed, 15 Apr 2026 01:15:13 GMT